Regional Weather Roundup
Issued by NWS

Home | Current Version | Previous Version | Text Only | Print | Product List | Glossary Off
Versions: 1 2 3 4 5 6 7 8 9 10 11 12 13 14 15 16 17 18 19 20 21 22 23 24 25 26 27 28 29 30 31 32 33 34 35 36 37 38 39 40 41 42 43 44 45 46 47 48 49 50

000
ASUS45 KPSR 021900
RWRAZ

PRELIMINARY ARIZONA REGIONAL HOURLY WEATHER ROUNDUP
NATIONAL WEATHER SERVICE PHOENIX AZ
1200 PM MST TUE SEP 02 2014

NOTE: FAIR INDICATES FEW OR NO CLOUDS BELOW 12,000 FEET WITH NO
SIGNIFICANT WEATHER AND/OR OBSTRUCTIONS TO VISIBILITY.

AZZ001>003-036-022000-
NORTHWEST ARIZONA

CITY           SKY/WX    TMP DP  RH WIND       PRES   REMARKS
KINGMAN        SUNNY     94  38  14 VRB6      29.98F
$$

AZZ004>008-015-016-018-022000-
NORTH CENTRAL ARIZONA

CITY           SKY/WX    TMP DP  RH WIND       PRES   REMARKS
GRAND CANYON   SUNNY     81  36  19 SW9       30.24S
WILLIAMS       SUNNY     77  36  22 S8G16     30.31S
PRESCOTT       SUNNY     86  42  21 VRB6      30.12F
FLAGSTAFF      SUNNY     76  34  21 S12       30.28F
PAYSON         SUNNY     86  34  15 SW9G16    30.16F
PAGE           SUNNY     91  38  15 N6        30.03F
$$

AZZ009>014-017-022000-
NORTHEAST ARIZONA

CITY           SKY/WX    TMP DP  RH WIND       PRES   REMARKS
WINSLOW        NOT AVBL
SAINT JOHNS    SUNNY     85  38  18 VRB6      30.17F
$$

AZZ023-022000-
GREATER PHOENIX AREA

CITY           SKY/WX    TMP DP  RH WIND       PRES   REMARKS
PHOENIX        MOSUNNY  102  40  12 E5        29.82F
GLENDALE       SUNNY    100  41  13 CALM      29.84F
DEER VALLEY    SUNNY     99  40  13 S5        29.85F
SCOTTSDALE     SUNNY     98  43  15 SE6       29.87F
MESA-FALCON    SUNNY     99  45  15 S6        29.84
MESA-GATEWAY   SUNNY    100  43  14 S6        29.86F
$$

AZZ027-028-022000-
SOUTHWEST MARICOPA COUNTY AND PINAL COUNTY

CITY           SKY/WX    TMP DP  RH WIND       PRES   REMARKS
CASA GRANDE    SUNNY    100  41  13 CALM      29.86F
GILA BEND      CLEAR    104  39  11 NW5       29.81F
$$

AZZ503-504-507>509-022000-
SOUTHEAST ARIZONA

CITY           SKY/WX    TMP DP  RH WIND       PRES   REMARKS
TUCSON         SUNNY     98  43  15 CALM      29.96F
DAVIS-MONTHAN  SUNNY     97  44  15 VRB3      29.94F
RYAN FIELD       N/A     97  48  19 CALM      29.94
NOGALES        SUNNY     93  45  19 SW3       30.04F
SAFFORD        SUNNY     96  41  15 W7        29.96F
$$

AZZ020-021-025-026-031-022000-
SOUTHWEST ARIZONA

CITY           SKY/WX    TMP DP  RH WIND       PRES   REMARKS
YUMA           SUNNY    104  50  16 E10G17    29.73F HX 101
$$

CAZ031-033-041-043-047-048-061-022000-
SOUTHERN CALIFORNIA

CITY           SKY/WX    TMP DP  RH WIND       PRES   REMARKS
DOWNTOWN L.A.  SUNNY     82  61  48 S3        29.83F
L.A. AIRPORT   MOSUNNY   77  62  59 W12       29.85S
SAN DIEGO      MOSUNNY   76  62  62 SW10      29.86S
BURBANK        SUNNY     82  59  45 VRB7      29.84F
ONTARIO        MOSUNNY   82  59  45 SW6       29.85F
RIVERSIDE      SUNNY     82  57  42 W5        29.84F
PALM SPRINGS   SUNNY    103  34   9 SE8       29.76F
EL CENTRO NAS  MOSUNNY   99  42  14 CALM      29.72F
IMPERIAL       SUNNY    101  41  12 CALM      29.72F
BLYTHE         SUNNY    102  43  13 S9        29.75F
$$

NVZ020-UTZ003-022000-
SOUTHERN NEVADA-UTAH

CITY           SKY/WX    TMP DP  RH WIND       PRES   REMARKS
LAS VEGAS      NOT AVBL
SALT LAKE CITY SUNNY     83  39  21 VRB5      29.97F
$$

NMZ009-TXZ055-022000-
NEW MEXICO-WEST TEXAS

CITY           SKY/WX    TMP DP  RH WIND       PRES   REMARKS
ALBUQUERQUE    MOSUNNY   88  36  15 VRB6      30.13F
EL PASO        MOSUNNY   96  35  11 S3        29.99F
$$


........................KEY........................
SKY/WX - SKY CONDITION/WEATHER
TMP    - TEMPERATURE IN FAHRENHEIT
DP     - DEW POINT IN FAHRENHEIT
RH     - RELATIVE HUMIDITY IN PERCENT
WIND   - DIRECTION AND SPEED IN MILES PER HOUR (MPH)
VRB    - VARIABLE WIND DIRECTION
PRES   - MEAN SEA LEVEL PRESSURE IN INCHES OF MERCURY
         F - FALLING PRESSURE   R - RISING PRESSURE
         S - STEADY PRESSURE
VSB    - VISIBILITY IN MILES
HX     - HEAT INDEX IN FAHRENHEIT
WCI    - WIND CHILL INDEX IN FAHRENHEIT
TC     - TEMPERATURE IN CELSIUS WHICH IS ALSO KNOWN AS
         TEMPERATURE IN CENTIGRADE
AFB    - AIR FORCE BASE
         LUKE AFB IS LUKE AIR FORCE BASE
         DAVIS-MONTHAN IS DAVIS-MONTHAN AIR FORCE BASE
NAS    - NAVAL AIR STATION
         EL CENTRO NAS IS EL CENTRO NAVAL AIR STATION
N/A    - NOT AVAILABLE


USA.gov is the U.S. government's official web portal to all federal, state and local government web resources and services.